D8954 Weather Reports


Display with metric or nautical units.
time (UTC)temp
F
wind
direction
speed
MPH
gust
MPH
rain 1hr
in
rain 24hr
in
rain mn
in
humidity
%
barometer
mb
20260503180005 66 221 0.0 2.0 0.00 0.02 0.02 51 1011.9
20260503175505 66 221 1.0 2.0 0.00 0.02 0.02 51 1012.0
20260503175005 66 221 1.0 3.0 0.00 0.02 0.02 49 1011.9
20260503174505 67 219 0.0 2.0 0.00 0.02 0.02 48 1012.0
20260503174005 66 230 1.0 3.0 0.00 0.02 0.02 51 1011.9
20260503173505 67 219 0.0 2.0 0.00 0.02 0.02 48 1011.9
20260503173006 67 219 0.0 2.0 0.00 0.02 0.02 50 1011.9
20260503172505 68 219 1.0 3.0 0.00 0.02 0.02 49 1011.9
20260503172005 68 215 2.0 3.0 0.00 0.02 0.02 46 1011.9
20260503171505 68 230 2.0 5.0 0.00 0.02 0.02 45 1011.8
20260503170505 69 213 3.0 8.0 0.00 0.02 0.02 43 1011.9
20260503151004 71 219 3.0 7.0 0.00 0.02 0.02 45 1011.8
20260503150519 71 213 3.0 10.0 0.00 0.02 0.02 46 1011.8
20260503131005 73 216 6.0 12.0 0.00 0.02 0.02 41 1012.9
20260503130504 73 225 7.0 12.0 0.00 0.02 0.02 41 1013.1
20260503110504 72 238 1.0 3.0 0.00 0.02 0.02 42 1013.7
20260503090504 68 244 3.0 8.0 0.00 0.02 0.02 46 1014.6
20260503081005 67 309 5.0 8.0 0.00 0.02 0.02 44 1014.8
20260503080505 66 317 4.0 6.0 0.00 0.02 0.02 49 1014.9
20260503072504 65 287 5.0 10.0 0.00 0.02 0.02 52 1014.9
20260503072005 65 330 2.0 8.0 0.00 0.02 0.02 53 1015.0
20260503071505 65 238 2.0 6.0 0.00 0.02 0.02 54 1015.0
20260503071004 65 237 2.0 7.0 0.00 0.02 0.02 56 1015.0
20260503055005 55 237 1.0 2.0 0.02 0.02 0.02 84 1014.6
20260503054004 55 227 0.0 2.0 0.02 0.02 0.02 83 1014.7
20260503053504 54 239 1.0 6.0 0.02 0.02 0.02 84 1014.6
20260503053005 54 204 3.0 6.0 0.02 0.02 0.02 83 1014.6
20260503052004 53 283 2.0 3.0 0.02 0.02 0.02 81 1014.3
20260503051504 54 5 2.0 7.0 0.02 0.02 0.02 79 1014.5
20260503050005 55 269 1.0 2.0 0.00 0.00 0.00 69 1014.6
20260503044504 53 271 1.0 1.0 0.00 0.00 0.00 71 1014.4
20260503044008 53 271 0.0 1.0 0.00 0.00 0.00 71 1014.3
20260503043505 54 271 1.0 2.0 0.00 0.00 0.00 70 1014.3
20260503043005 54 271 2.0 2.0 0.00 0.00 0.00 69 1014.4
20260503042507 54 271 1.0 1.0 0.00 0.00 0.00 69 1014.3
20260503041004 53 271 0.0 2.0 0.00 0.00 0.00 69 1014.3
20260503040504 53 271 1.0 2.0 0.00 0.00 0.00 69 1014.4
20260503040004 53 271 2.0 3.0 0.00 0.00 0.00 69 1014.4
20260503035504 53 271 2.0 2.0 0.00 0.00 0.00 68 1014.4
20260503035004 53 271 2.0 2.0 0.00 0.00 0.00 68 1014.4
20260503034504 54 271 2.0 2.0 0.00 0.00 0.00 68 1014.5
20260503034004 55 271 2.0 3.0 0.00 0.00 0.00 66 1014.5
20260503033504 54 272 2.0 2.0 0.00 0.00 0.00 65 1014.5
20260503033005 53 272 1.0 2.0 0.00 0.00 0.00 66 1014.6
20260503031504 52 272 0.0 2.0 0.00 0.00 0.00 68 1014.5
20260503031004 53 273 2.0 3.0 0.00 0.00 0.00 66 1014.5
20260503030504 52 269 2.0 3.0 0.00 0.00 0.00 67 1014.7
20260503030004 53 269 2.0 2.0 0.00 0.00 0.00 66 1014.7
20260503025504 53 269 2.0 2.0 0.00 0.00 0.00 66 1014.7
20260503025004 52 270 0.0 0.0 0.00 0.00 0.00 66 1014.6
20260503024504 52 270 0.0 0.0 0.00 0.00 0.00 67 1014.7
20260503024004 52 270 1.0 2.0 0.00 0.00 0.00 66 1014.8
20260503022504 52 270 0.0 2.0 0.00 0.00 0.00 67 1014.9
20260503022004 53 270 3.0 3.0 0.00 0.00 0.00 65 1014.8
20260503021504 53 269 1.0 2.0 0.00 0.00 0.00 65 1014.9
20260503020004 52 249 1.0 2.0 0.00 0.00 0.00 66 1014.9
20260503015504 52 257 0.0 2.0 0.00 0.00 0.00 66 1014.9
20260503015005 53 270 0.0 0.0 0.00 0.00 0.00 65 1014.9
20260503014504 53 270 1.0 2.0 0.00 0.00 0.00 65 1014.9
20260503014004 54 270 1.0 2.0 0.00 0.00 0.00 64 1014.9
20260503013504 54 270 1.0 2.0 0.00 0.00 0.00 64 1014.8
20260503013005 55 270 1.0 2.0 0.00 0.00 0.00 63 1014.7
20260503012504 55 270 0.0 0.0 0.00 0.00 0.00 60 1014.7
20260503012004 55 270 0.0 0.0 0.00 0.00 0.00 61 1014.8
20260503011504 55 270 0.0 0.0 0.00 0.00 0.00 62 1014.9
20260503011007 55 270 0.0 1.0 0.00 0.00 0.00 62 1014.8
20260503010504 55 270 0.0 2.0 0.00 0.00 0.00 61 1014.9
20260503010004 56 270 0.0 1.0 0.00 0.00 0.00 59 1014.9
20260503005504 57 270 0.0 2.0 0.00 0.00 0.00 56 1014.9
20260503004506 56 270 0.0 0.0 0.00 0.00 0.00 57 1015.0
20260503004005 56 270 0.0 0.0 0.00 0.00 0.00 58 1015.0
20260503003504 56 270 0.0 1.0 0.00 0.00 0.00 56 1015.2
20260503003005 55 270 0.0 2.0 0.00 0.00 0.00 59 1015.1
20260503002518 56 270 1.0 2.0 0.00 0.00 0.00 59 1015.2
20260503002004 57 270 1.0 1.0 0.00 0.00 0.00 56 1015.2
20260503001505 57 270 0.0 0.0 0.00 0.00 0.00 57 1015.3
20260503000505 57 270 0.0 0.0 0.00 0.00 0.00 55 1015.3
20260502235504 58 270 0.0 2.0 0.00 0.00 0.00 55 1015.5
20260502235004 57 270 1.0 2.0 0.00 0.00 0.00 56 1015.4
20260502234504 57 270 0.0 0.0 0.00 0.00 0.00 58 1015.5
20260502233505 57 270 0.0 2.0 0.00 0.00 0.00 57 1015.5
20260502233005 57 270 0.0 2.0 0.00 0.00 0.00 57 1015.6
20260502232504 57 270 0.0 2.0 0.00 0.00 0.00 57 1015.6
20260502232005 56 270 1.0 1.0 0.00 0.00 0.00 58 1015.6
20260502231504 57 270 2.0 2.0 0.00 0.00 0.00 57 1015.7
20260502231005 57 270 2.0 2.0 0.00 0.00 0.00 55 1015.7
20260502230004 56 270 1.0 2.0 0.00 0.00 0.00 56 1015.8
20260502225504 59 270 2.0 3.0 0.00 0.00 0.00 50 1015.8
20260502225007 57 270 1.0 2.0 0.00 0.00 0.00 52 1015.8
20260502224504 58 271 2.0 3.0 0.00 0.00 0.00 53 1015.8
20260502224004 58 271 2.0 2.0 0.00 0.00 0.00 52 1015.8
20260502223504 57 271 2.0 2.0 0.00 0.00 0.00 56 1015.8
20260502223005 57 271 1.0 3.0 0.00 0.00 0.00 57 1015.8
20260502222503 59 271 2.0 3.0 0.00 0.00 0.00 52 1015.8
20260502222004 59 271 2.0 2.0 0.00 0.00 0.00 54 1015.9
20260502221504 59 271 2.0 2.0 0.00 0.00 0.00 53 1015.9
20260502220505 58 272 1.0 2.0 0.00 0.00 0.00 56 1016.0
20260502220004 58 272 2.0 2.0 0.00 0.00 0.00 57 1016.0
20260502215504 58 272 2.0 2.0 0.00 0.00 0.00 56 1016.0
20260502215004 58 271 2.0 3.0 0.00 0.00 0.00 57 1016.1
20260502214504 58 272 2.0 2.0 0.00 0.00 0.00 55 1016.0
20260502214004 58 272 2.0 2.0 0.00 0.00 0.00 56 1016.0
20260502213503 60 272 2.0 3.0 0.00 0.00 0.00 51 1016.0
20260502213005 59 271 2.0 2.0 0.00 0.00 0.00 53 1016.0
20260502212504 58 271 0.0 2.0 0.00 0.00 0.00 56 1016.0
20260502212004 59 271 0.0 2.0 0.00 0.00 0.00 53 1016.0
20260502211504 60 271 1.0 1.0 0.00 0.00 0.00 50 1016.0
20260502211019 59 271 0.0 1.0 0.00 0.00 0.00 52 1016.1
20260502210504 58 271 1.0 2.0 0.00 0.00 0.00 55 1016.1
20260502210004 60 271 1.0 2.0 0.00 0.00 0.00 52 1016.1
20260502205504 60 271 1.0 2.0 0.00 0.00 0.00 49 1016.1
20260502205004 59 271 0.0 0.0 0.00 0.00 0.00 50 1016.2
20260502204504 59 271 0.0 1.0 0.00 0.00 0.00 53 1016.2
20260502204004 60 271 1.0 2.0 0.00 0.00 0.00 51 1016.2
20260502203504 59 271 0.0 2.0 0.00 0.00 0.00 52 1016.2
20260502203005 59 272 2.0 2.0 0.00 0.00 0.00 52 1016.2
20260502202503 59 271 1.0 2.0 0.00 0.00 0.00 54 1016.2
20260502202004 58 271 1.0 2.0 0.00 0.00 0.00 56 1016.3
20260502201504 58 271 1.0 2.0 0.00 0.00 0.00 56 1016.3
20260502201004 58 272 2.0 3.0 0.00 0.00 0.00 55 1016.3
20260502200504 59 272 2.0 3.0 0.00 0.00 0.00 55 1016.4
20260502200004 59 271 2.0 3.0 0.00 0.00 0.00 55 1016.4
20260502195504 59 273 2.0 3.0 0.00 0.00 0.00 55 1016.4
20260502195004 59 271 1.0 2.0 0.00 0.00 0.00 55 1016.4
20260502194004 60 271 1.0 2.0 0.00 0.00 0.00 54 1016.4
20260502193504 60 271 0.0 2.0 0.00 0.00 0.00 54 1016.3
20260502192505 59 271 1.0 2.0 0.00 0.00 0.00 57 1016.3
20260502191504 61 271 2.0 2.0 0.00 0.00 0.00 53 1016.2
20260502191004 61 271 2.0 3.0 0.00 0.00 0.00 53 1016.1
20260502185003 61 274 2.0 3.0 0.00 0.00 0.00 54 1016.1
20260502184503 60 275 1.0 2.0 0.00 0.00 0.00 57 1016.1
20260502184004 60 275 2.0 3.0 0.00 0.00 0.00 59 1016.2
20260502183504 62 274 3.0 3.0 0.00 0.00 0.00 56 1016.3
20260502183005 64 269 3.0 3.0 0.00 0.00 0.00 50 1016.2
20260502182504 64 257 3.0 3.0 0.00 0.00 0.00 49 1016.2
20260502182005 65 261 3.0 6.0 0.00 0.00 0.00 47 1016.2
20260502180504 66 240 2.0 3.0 0.00 0.00 0.00 45 1016.1